Home > Weather > Ettelbruck > Past weeks

Flag for Luxembourg Weather for the Past 2 Weeks in Ettelbruck, Luxembourg

Now
48 °F

Clear.


Feels Like: 46 °F
Forecast: 33 / 58 °F
Wind: 5 mph from West

Location: Luxembourg Airport

Current Time: May 3, 2016 at 5:55:06 AM

Latest Report: May 3, 2016 at 4:50 AM


Visibility: 10 mi

Pressure: 30.12 "Hg

Humidity: 71%

Dew Point: 39 °F

Location of EttelbruckLocation

Historic Weather in Ettelbruck — Graph

°F

Ettelbruck Temperature Yesterday

Maximum temperature yesterday: 66 °F (at 5:20 PM)
Minimum temperature yesterday: 45 °F (at 4:50 AM)
Average temperature yesterday: 56 °F

High & Low Weather Summary for the Past Weeks

 TemperatureHumidityPressure
High70 °F (Apr 21, 4:20 PM)100% (Apr 23, 7:20 AM)30.39 "Hg (Apr 23, 7:20 AM)
Low28 °F (Apr 28, 4:50 AM)24% (Apr 21, 6:20 PM)29.59 "Hg (Apr 25, 11:20 PM)
Average45 °F69%30.03 "Hg
* Reported Apr 18 3:20 AM — May 3 3:50 AM, Ettelbruck, Weather by CustomWeather, © 2016

Note: Actual official high and low records may vary slightly from our data, if they occured in-between our weather recording intervals... More about our weather records

Advertising

Ettelbruck Weather History for the Previous 24 Hours

Scroll right to see more
 ConditionsComfort  
Time TempWeatherWind HumidityBarometerVisibility
3:50 AM
Tue, May 3
48 °FClear.3 mph66%30.09 "Hg10 mi
2:50 AM48 °FClear.2 mph66%30.12 "Hg10 mi
2:20 AM50 °FCool.5 mph58%30.12 "HgN/A
1:50 AM48 °FCool.5 mph66%30.12 "HgN/A
1:20 AM50 °FClear.5 mph62%30.12 "Hg10 mi
12:50 AM50 °FCool.3 mph62%30.12 "HgN/A
12:20 AM52 °FClear.7 mph62%30.15 "Hg10 mi
11:50 PM
Mon, May 2
54 °FClear.7 mph58%30.12 "Hg10 mi
11:20 PM54 °FClear.8 mph58%30.15 "Hg10 mi
10:50 PM55 °FPassing clouds.8 mph59%30.15 "HgN/A
10:20 PM55 °FClear.8 mph59%30.12 "Hg10 mi
9:50 PM57 °FSunny.9 mph59%30.12 "Hg10 mi
9:20 PM59 °FPassing clouds.8 mph51%30.12 "HgN/A
8:50 PM59 °FPassing clouds.8 mph51%30.12 "HgN/A
8:20 PM61 °FPassing clouds.8 mph45%30.12 "HgN/A
7:50 PM63 °FSunny.1 mph37%30.12 "Hg10 mi
7:20 PM63 °FSunny.1 mph45%30.12 "Hg10 mi
6:50 PM64 °FSunny.3 mph34%30.12 "Hg10 mi
6:20 PM64 °FSunny.1 mph32%30.12 "Hg10 mi
5:50 PM66 °FPassing clouds.5 mph32%30.12 "HgN/A
5:20 PM66 °FSunny.1 mph32%30.15 "Hg10 mi
4:50 PM64 °FPassing clouds.5 mph37%30.15 "HgN/A
4:20 PM64 °FSunny.3 mph34%30.15 "Hg10 mi
3:50 PM64 °FPassing clouds.5 mph37%30.18 "HgN/A
3:20 PM64 °FSunny.3 mph40%30.18 "Hg10 mi
2:50 PM63 °FPassing clouds.3 mph37%30.18 "HgN/A
2:20 PM63 °FSunny.5 mph39%30.21 "Hg10 mi
1:50 PM63 °FSunny.3 mph32%30.21 "Hg10 mi
1:20 PM61 °FSunny.3 mph39%30.21 "Hg10 mi
12:20 PM59 °FPassing clouds.5 mph45%30.24 "HgN/A
11:50 AM59 °FSunny.6 mph48%30.24 "Hg10 mi
11:20 AM59 °FSunny.6 mph48%30.24 "Hg10 mi
10:50 AM55 °FSunny.7 mph67%30.24 "Hg10 mi
10:20 AM54 °FSunny.7 mph67%30.27 "Hg10 mi
9:50 AM50 °FSunny.8 mph76%30.27 "Hg10 mi
9:20 AM48 °FSunny.9 mph82%30.27 "Hg10 mi
8:50 AM48 °FSunny.10 mph76%30.27 "Hg10 mi
8:20 AM48 °FSunny.12 mph76%30.27 "Hg10 mi
6:50 AM45 °FClear.10 mph87%30.24 "Hg10 mi
5:50 AM45 °FClear.10 mph87%30.24 "Hg10 mi
5:20 AM45 °FClear.12 mph87%30.24 "Hg10 mi
Weather by CustomWeather, © 2016

See weather overviewHow to use our weather pages